• In Netherlands
  • List of Countries
  • For 7 days
  • Water Temperature
  • Satellite Maps
  • Weather Map
  • Weather Widgets
  • user-avatar
    Login

    Hourly Weather Kiustendil

    Today, 19 August, Saturday

    Time Temperature Precipitation Wind Pressure Humidity
    00:00 +12°C° 0 mm 1 mps 628 mmHg 52%
    01:00 +11°C° 0 mm 1 mps 628 mmHg 54%
    02:00 +11°C° 0 mm 1 mps 628 mmHg 54%
    03:00 +11°C° 0 mm 1 mps 627 mmHg 55%
    04:00 +10°C° 0 mm 1 mps 627 mmHg 56%
    05:00 +13°C° 0 mm 1 mps 628 mmHg 50%
    06:00 +15°C° 0 mm 1 mps 629 mmHg 44%
    07:00 +18°C° 0 mm 1 mps 630 mmHg 38%
    08:00 +20°C° 0 mm 1 mps 631 mmHg 34%
    09:00 +23°C° 0 mm 1 mps 631 mmHg 30%
    10:00 +25°C° 0 mm 1 mps 632 mmHg 25%
    11:00 +26°C° 0 mm 1 mps 632 mmHg 24%
    12:00 +27°C° 0 mm 1 mps 632 mmHg 22%
    13:00 +28°C° 0 mm 1 mps 632 mmHg 20%
    14:00 +27°C° 0 mm 1 mps 631 mmHg 21%
    15:00 +27°C° 0 mm 1 mps 631 mmHg 21%
    16:00 +26°C° 0 mm 1 mps 631 mmHg 21%
    17:00 +24°C° 0 mm 1 mps 630 mmHg 25%
    18:00 +21°C° 0 mm 1 mps 629 mmHg 29%
    19:00 +19°C° 0 mm 1 mps 628 mmHg 33%
    20:00 +16°C° 0 mm 1 mps 628 mmHg 36%
    21:00 +15°C° 0 mm 1 mps 628 mmHg 39%
    22:00 +14°C° 0 mm 1 mps 628 mmHg 43%
    23:00 +13°C° 0 mm 1 mps 627 mmHg 44%

    Tomorrow, 20 August, Sunday

    Time Temperature Precipitation Wind Pressure Humidity
    00:00 +13°C° 0 mm 1 mps 627 mmHg 46%
    01:00 +12°C° 0 mm 1 mps 627 mmHg 47%
    02:00 +12°C° 0 mm 1 mps 626 mmHg 48%
    03:00 +12°C° 0 mm 1 mps 626 mmHg 49%
    04:00 +11°C° 0 mm 1 mps 626 mmHg 50%
    05:00 +14°C° 0 mm 1 mps 627 mmHg 45%
    06:00 +16°C° 0 mm 1 mps 628 mmHg 41%
    07:00 +19°C° 0 mm 1 mps 629 mmHg 36%
    08:00 +21°C° 0 mm 1 mps 629 mmHg 32%
    09:00 +23°C° 0 mm 1 mps 630 mmHg 28%
    10:00 +25°C° 0 mm 2 mps 631 mmHg 25%
    11:00 +26°C° 0 mm 2 mps 630 mmHg 23%
    12:00 +26°C° 0 mm 3 mps 630 mmHg 22%
    13:00 +27°C° 0 mm 3 mps 630 mmHg 21%
    14:00 +26°C° 0 mm 3 mps 629 mmHg 22%
    15:00 +26°C° 0 mm 3 mps 629 mmHg 23%
    16:00 +25°C° 0 mm 3 mps 629 mmHg 24%
    17:00 +22°C° 0 mm 3 mps 628 mmHg 30%
    18:00 +19°C° 0 mm 3 mps 627 mmHg 36%
    19:00 +17°C° 0 mm 3 mps 627 mmHg 42%
    20:00 +14°C° 0 mm 3 mps 627 mmHg 49%
    21:00 +13°C° 0 mm 3 mps 626 mmHg 56%
    22:00 +13°C° 0 mm 2 mps 626 mmHg 63%
    23:00 +12°C° 0 mm 2 mps 626 mmHg 66%

    Day after tomorrow, 21 August, Monday

    Time Temperature Precipitation Wind Pressure Humidity
    00:00 +12°C° 0 mm 2 mps 626 mmHg 70%
    01:00 +10°C° 0 mm 2 mps 625 mmHg 74%
    02:00 +10°C° 0 mm 2 mps 625 mmHg 77%
    03:00 +9°C° 0 mm 2 mps 625 mmHg 80%
    04:00 +9°C° 0 mm 2 mps 625 mmHg 83%
    05:00 +10°C° 0 mm 2 mps 625 mmHg 78%
    06:00 +11°C° 0 mm 3 mps 626 mmHg 73%
    07:00 +12°C° 0 mm 3 mps 626 mmHg 68%
    08:00 +14°C° 0 mm 3 mps 627 mmHg 61%
    09:00 +17°C° 0 mm 4 mps 628 mmHg 53%
    10:00 +19°C° 0 mm 4 mps 628 mmHg 46%
    11:00 +19°C° 0.1 mm 4 mps 628 mmHg 44%
    12:00 +19°C° 0.1 mm 5 mps 628 mmHg 43%
    13:00 +20°C° 0.1 mm 5 mps 628 mmHg 41%
    14:00 +19°C° 0.1 mm 5 mps 628 mmHg 42%
    15:00 +17°C° 0.1 mm 5 mps 627 mmHg 43%
    16:00 +17°C° 0.1 mm 5 mps 627 mmHg 44%
    17:00 +15°C° 0 mm 4 mps 626 mmHg 49%
    18:00 +12°C° 0 mm 4 mps 626 mmHg 55%
    19:00 +10°C° 0 mm 3 mps 625 mmHg 60%
    20:00 +9°C° 0 mm 2 mps 625 mmHg 63%
    21:00 +8°C° 0 mm 2 mps 625 mmHg 66%
    22:00 +7°C° 0 mm 2 mps 625 mmHg 69%
    23:00 +7°C° 0 mm 2 mps 625 mmHg 70%

    22 August, Tuesday

    Time Temperature Precipitation Wind Pressure Humidity
    00:00 +6°C° 0 mm 2 mps 624 mmHg 71%
    01:00 +6°C° 0 mm 2 mps 624 mmHg 73%
    02:00 +5°C° 0 mm 2 mps 624 mmHg 74%
    03:00 +5°C° 0 mm 2 mps 624 mmHg 75%
    04:00 +4°C° 0 mm 2 mps 624 mmHg 76%
    05:00 +6°C° 0 mm 2 mps 625 mmHg 67%
    06:00 +8°C° 0 mm 3 mps 626 mmHg 58%
    07:00 +10°C° 0 mm 3 mps 627 mmHg 48%
    08:00 +12°C° 0 mm 4 mps 627 mmHg 42%
    09:00 +13°C° 0 mm 4 mps 628 mmHg 36%
    10:00 +15°C° 0 mm 5 mps 628 mmHg 31%
    11:00 +16°C° 0 mm 5 mps 628 mmHg 28%
    12:00 +17°C° 0 mm 5 mps 628 mmHg 25%
    13:00 +17°C° 0 mm 5 mps 628 mmHg 23%
    14:00 +17°C° 0 mm 5 mps 628 mmHg 24%
    15:00 +17°C° 0 mm 5 mps 627 mmHg 24%
    16:00 +16°C° 0 mm 5 mps 627 mmHg 25%
    17:00 +14°C° 0 mm 5 mps 627 mmHg 33%
    18:00 +11°C° 0 mm 4 mps 626 mmHg 41%
    19:00 +8°C° 0 mm 3 mps 625 mmHg 48%
    20:00 +7°C° 0 mm 2 mps 625 mmHg 52%
    21:00 +6°C° 0 mm 2 mps 625 mmHg 56%
    22:00 +5°C° 0 mm 2 mps 625 mmHg 60%
    23:00 +5°C° 0 mm 2 mps 625 mmHg 62%

    23 August, Wednesday

    Time Temperature Precipitation Wind Pressure Humidity
    00:00 +5°C° 0 mm 1 mps 625 mmHg 64%
    01:00 +5°C° 0 mm 1 mps 625 mmHg 66%
    02:00 +5°C° 0 mm 1 mps 625 mmHg 68%
    03:00 +4°C° 0 mm 1 mps 625 mmHg 69%
    04:00 +4°C° 0 mm 1 mps 625 mmHg 71%
    05:00 +6°C° 0 mm 1 mps 626 mmHg 63%
    06:00 +7°C° 0 mm 2 mps 626 mmHg 56%
    07:00 +9°C° 0 mm 2 mps 627 mmHg 48%
    08:00 +12°C° 0 mm 2 mps 628 mmHg 42%
    09:00 +13°C° 0 mm 3 mps 629 mmHg 36%
    10:00 +16°C° 0 mm 3 mps 629 mmHg 30%
    11:00 +17°C° 0 mm 3 mps 629 mmHg 27%
    12:00 +18°C° 0 mm 4 mps 630 mmHg 25%
    13:00 +19°C° 0 mm 4 mps 630 mmHg 23%
    14:00 +19°C° 0 mm 4 mps 630 mmHg 23%
    15:00 +19°C° 0 mm 3 mps 629 mmHg 23%
    16:00 +19°C° 0 mm 3 mps 629 mmHg 23%
    17:00 +16°C° 0 mm 3 mps 629 mmHg 30%
    18:00 +14°C° 0 mm 2 mps 628 mmHg 36%
    19:00 +10°C° 0 mm 2 mps 627 mmHg 43%
    20:00 +9°C° 0 mm 2 mps 627 mmHg 46%
    21:00 +8°C° 0 mm 2 mps 627 mmHg 49%
    22:00 +8°C° 0 mm 1 mps 627 mmHg 52%
    23:00 +7°C° 0 mm 1 mps 627 mmHg 54%

    24 August, Thursday

    Time Temperature Precipitation Wind Pressure Humidity
    00:00 +7°C° 0 mm 1 mps 627 mmHg 56%
    01:00 +6°C° 0 mm 1 mps 627 mmHg 57%
    02:00 +6°C° 0 mm 1 mps 627 mmHg 58%
    03:00 +6°C° 0 mm 1 mps 627 mmHg 59%
    04:00 +6°C° 0 mm 1 mps 627 mmHg 60%
    05:00 +8°C° 0 mm 1 mps 628 mmHg 53%
    06:00 +10°C° 0 mm 1 mps 629 mmHg 45%
    07:00 +13°C° 0 mm 1 mps 630 mmHg 38%
    08:00 +15°C° 0 mm 1 mps 631 mmHg 32%
    09:00 +19°C° 0 mm 1 mps 632 mmHg 27%
    10:00 +20°C° 0 mm 2 mps 632 mmHg 22%
    11:00 +21°C° 0 mm 2 mps 632 mmHg 20%
    12:00 +23°C° 0 mm 2 mps 633 mmHg 18%
    13:00 +24°C° 0 mm 2 mps 633 mmHg 16%
    14:00 +24°C° 0 mm 2 mps 632 mmHg 16%
    15:00 +24°C° 0 mm 2 mps 632 mmHg 16%
    16:00 +24°C° 0 mm 2 mps 632 mmHg 16%
    17:00 +20°C° 0 mm 2 mps 631 mmHg 22%
    18:00 +17°C° 0 mm 2 mps 630 mmHg 27%
    19:00 +13°C° 0 mm 2 mps 629 mmHg 33%
    20:00 +12°C° 0 mm 1 mps 629 mmHg 35%
    21:00 +11°C° 0 mm 1 mps 629 mmHg 38%
    22:00 +10°C° 0 mm 1 mps 629 mmHg 41%
    23:00 +10°C° 0 mm 1 mps 629 mmHg 43%
    Show more